Portada
METAR-TAF:

METAR-TAF

Aeroports :

Nakashibetsu, Japó

latitud: 43-34N, longitud: 144-58E, altitud: 66 m

Observació

L'informe es va fer fa 1 hora i 17 minuts, a les 00:00 UTC
Vent 11 kt del Sud-Oest
Temperatura 13°C
Humitat 94%
Pressió 993 hPa
Visibilitat 10 km o més
Escasses núvols a una alçada de 500 ft
Núvols disperses a una alçada de 900 ft
Cel ennuvolat a una alçada de 1200 ft

METAR: RJCN 140000Z 22011KT 9999 FEW005 SCT009 BKN012 13/12 Q0993

Hora: 10:17 (01:17 UTC)


TAF: manca

Observacions i pronòstics meteorològics de més de 4000 aeroports (METAR i TAF).

Les estacions disponibles són els punts grocs i vermells al mapa.

Posi el ratolí al punt desitjat per veure el nom de l'estació.

Feu clic per veure les observacions i els pronòstics meteorològics.

Per canviar el mapa: feu clic els botons verds amb una creu de color negre per apropar; al botó verd amb un guió per allunyar la imatge; o en les fletxes verdes per a mapes adjacents.


METAR-TAF: